User: anonymous   Login
Location: Theydon Bois
(51.6750°N, 0.1050°E)
Time: 09:51:59
(UTC+00:00)
Language:

MOS 1-B Rocket - Orbit

View from above orbital plane
View from above orbital plane
View from above satellite
View from above satellite

Ground track
Ground track

The orbit data is extracted from the following two-line orbital elements,

1 20491U 90013D   17347.53861668 +.00000326 +00000-0 +68049-3 0  9995
2 20491 099.0240 016.3758 0467647 249.1145 105.9308 13.03530271324114
Epoch (UTC): 13 December 2017 12:55:36
Eccentricity: 0.0467647
inclination: 99.0240°
perigee height: 891 km
apogee height: 1605 km
right ascension of ascending node: 16.3758°
argument of perigee: 249.1145°
revolutions per day: 13.03530271
mean anomaly at epoch: 105.9308°
orbit number at epoch: 32411

The dashed part of the orbit path shows where the satellite is in the earth's shadow,  

DLR